Погода в Прогрессе

Россия / Амурская область     49°44′34″N   129°40′33″E
темп.,
°C
ветер,
м/с
пор.,
м/с
влажн.,
%
обл.,
%
осадки,
мм/ч
давл.,
гПа
погр.,
м
12 мая, ср
ср1200:00+8юв71576100 0.0 1013517
03:00+7юв71678100 0.0 1012604
06:00+8юв91876100 0.0 1009809
09:00+9юв101876100 0.6 10071092
12:00+9юв111879100 3.0 10051046
15:00+12юв11147298 3.1 10021192
18:00+11юв101679100 0.1 1001943
21:00+10юв81587100 1.4 1000580
13 мая, чт
чт1300:00+9юв81486100 0.6 1000472
03:00+10ю61085100 1.4 1000373
06:00+9ююв5989100 1.0 1001427
09:00+9ююз4984100 1.6 1001741
12:00+10зюз5985100 1.0 1003877
15:00+10зюз4108399 1.8 1003701
18:00+10зсз6118172 0.6 1005678
21:00+8зсз499114 0.6 1007239
14 мая, пт
пт1400:00+7зсз23938 0.0 100942
03:00+6ююв0093100 0.0 100910
06:00+7ююв24927 0.0 1010114
09:00+13юв6767100 0.0 1008522
12:00+17ююв7951100 0.0 1006817
15:00+20юв51043100 0.0 10021323
18:00+18юз5954100 0.1 1001265
21:00+11зсз41194100 5.0 1002649
15 мая, сб
сб1500:00+9сз2396100 12.8 1001238
03:00+8ююз239723 14.0 99960
06:00+8зюз410905 0.1 999453
09:00+11з7106674 0.1 9991417
12:00+9з71073100 0.2 10011154
15:00+11зсз81265100 0.4 10001649
18:00+10зсз7137299 0.3 10021409
21:00+8зсз4118470 0.3 1004387
16 мая, вс
вс1600:00+6зсз359165 0.0 1004101
03:00+6зсз31093100 0.0 1004220
06:00+9зсз4108422 0.0 1004468
09:00+13сз57655 0.0 10041010
12:00+16зсз575326 0.0 10031750
15:00+18зсз46410 0.0 10011605
18:00+18вюв444989 0.0 999303
21:00+13юв51461100 0.0 998300